This is the latest recevied weather packets stored in our database for station/object KC7UNY-13. If no packets are shown the sender has not sent any weather packets the latest 10 day(s).
| Time | Temp. | Humidity | Pressure | Rain* | Wind** | Luminosity | Snow |
|---|---|---|---|---|---|---|---|
| 1777901699 | 22.22° C | 46% | 1012.1 hPa | 0 mm | - | 26 W/m² | - |
| 1777901395 | 22.22° C | 46% | 1012.2 hPa | 0 mm | - | 25 W/m² | - |
| 1777901093 | 22.22° C | 46% | 1012.1 hPa | 0 mm | - | 22 W/m² | - |
| 1777900790 | 22.22° C | 45% | 1011.8 hPa | 0 mm | - | 26 W/m² | - |
| 1777900488 | 22.22° C | 45% | 1011.9 hPa | 0 mm | - | 26 W/m² | - |
| 1777900184 | 21.67° C | 46% | 1011.7 hPa | 0 mm | - | 22 W/m² | - |
| 1777899882 | 21.67° C | 46% | 1011.4 hPa | 0 mm | - | 17 W/m² | - |
| 1777899578 | 21.67° C | 46% | 1011.4 hPa | 0 mm | - | 14 W/m² | - |
| 1777899276 | 21.67° C | 46% | 1011.2 hPa | 0 mm | - | 10 W/m² | - |
| 1777898973 | 21.67° C | 46% | 1011.2 hPa | 0 mm | - | 7 W/m² | - |
| 1777898670 | 21.67° C | 46% | 1011.3 hPa | 0 mm | - | 4 W/m² | - |
| 1777898367 | 21.67° C | 47% | 1011.2 hPa | 0 mm | - | 2 W/m² | - |
| 1777898065 | 21.67° C | 46% | 1011.3 hPa | 0 mm | - | 1 W/m² | - |
| 1777897760 | 21.11° C | 47% | 1011.3 hPa | 0 mm | - | 1 W/m² | - |
| 1777897457 | 21.67° C | 47% | 1011.2 hPa | 0 mm | - | 0 W/m² | - |
| 1777897153 | 21.67° C | 46% | 1011 hPa | 0 mm | - | 0 W/m² | - |
| 1777896850 | 21.67° C | 46% | 1010.9 hPa | 0 mm | - | 0 W/m² | - |
| 1777896547 | 21.67° C | 46% | 1010.9 hPa | 0 mm | - | 0 W/m² | - |
| 1777896244 | 21.67° C | 47% | 1011 hPa | 0 mm | - | 0 W/m² | - |
| 1777895942 | 21.67° C | 46% | 1011 hPa | 0 mm | - | 0 W/m² | - |
| 1777895639 | 21.67° C | 46% | 1011.1 hPa | 0 mm | - | 0 W/m² | - |
| 1777895337 | 21.67° C | 45% | 1011.1 hPa | 0 mm | - | 0 W/m² | - |
| 1777895034 | 21.67° C | 44% | 1010.8 hPa | 0 mm | - | 0 W/m² | - |
| 1777894731 | 22.22° C | 44% | 1011 hPa | 0 mm | - | 0 W/m² | - |
| 1777894428 | 22.22° C | 44% | 1010.9 hPa | 0 mm | - | 0 W/m² | - |
* Rain latest hour (hover to see other rain measurements)
** Current wind speed in m/s (hover to see current wind gust speed)